Other Public Products
Issued by NWS Grand Forks, ND

Home | Current Version | Previous Version | Graphics & Text | Print | Product List | Glossary On
Versions: 1 2 3 4 5 6 7 8 9 10 11 12 13 14 15 16 17 18 19 20 21 22 23 24 25 26 27 28 29 30 31 32 33 34 35 36 37 38 39 40 41 42 43 44 45 46 47 48 49 50
000
FPUS83 KFGF 312131
OPUFGF
PRAIRIE TO PINES WEATHER ROUNDUP
NATIONAL WEATHER SERVICE EASTERN NORTH DAKOTA/GRAND FORKS ND
400 PM CDT MON AUG 31 2015

 **SATELLITE DATA USED TO AUGMENT SKY COVER AT AUTOMATED STATIONS**
 *****  WEATHER ACROSS EASTERN NORTH DAKOTA  *****

CITY           SKY/WX    TMP DP  RH WIND       PRES   REMARKS
GRAND FORKS    PTSUNNY   80  61  52 SW6       29.77R
GRAND FORKS AF FAIR      80  60  50 NW9       29.79R
GRAND CITY NWS   N/A     79 N/A N/A W5          N/A
BUXTON         NOT AVBL
DEVILS LAKE    FAIR      79  45  29 W18       29.80S
FARGO          CLOUDY    80  66  62 N5        29.79S
WAHPETON ARPT  FAIR      79  63  57 NW7       29.80S
$$

 *****  WEATHER ACROSS CENTRAL AND WESTERN NORTH DAKOTA  *****

CITY           SKY/WX    TMP DP  RH WIND       PRES   REMARKS
JAMESTOWN      FAIR      78  59  51 NW9       29.85R
BISMARCK       FAIR      83  42  23 W9        29.87F
MINOT          FAIR      78  38  23 W20       29.82F
MINOT AFB      FAIR      80  39  22 W16G26    29.80F
GARRISON         N/A     77  44  30 W16G22    29.87S
WILLISTON      FAIR      78  37  22 SW12G25   29.85F
DICKINSON      FAIR      79  37  22 W14G25    29.90F
HETTINGER      FAIR      79  40  24 W10       29.93F
$$

 *****  OTHER OBSERVATIONS NORTHEAST NORTH DAKOTA  *****

CITY           SKY/WX    TMP DP  RH WIND       PRES   REMARKS
WALHALLA       FAIR      81  48  32 MISG      29.74F
LANGDON        FAIR      81  41  24 W21       29.79S
CAVALIER       FAIR      81  52  36 W12       29.75S
GRAFTON        FAIR      81  59  47 W13G18    29.77S
CANDO          FAIR      77  41  27 W17G25    29.81S
FORT TOTTEN      N/A     80  54  40 W7        29.95S
ROLLA            N/A     75  41  29 W18G29    29.81S
RUGBY          FAIR      77  41  27 W21G28    29.81S
 ***** THE ABOVE OBSERVATIONS ARE NON NWS ARE NOT QUALITY
        CONTROLLED AND MAY MIS-REPORT RAIN FOR SNOW...
$$

 *****  OTHER OBSERVATIONS SOUTHEAST NORTH DAKOTA *****

CITY           SKY/WX    TMP DP  RH WIND       PRES   REMARKS
COOPERSTOWN    NOT AVBL
VALLEY CITY    FAIR      81  63  54 W10       29.83R
OAKES            N/A     75  73  94 W3        29.86R
GWINNER        FAIR      77  64  65 NW5       29.85R
SHEYENNE NWR     N/A     78  64  61 N5        29.95S
BUFFALO        NOT AVBL
WYNDMERE         N/A     81  68  65 NW5         N/A
 ***** THE ABOVE OBSERVATIONS ARE NON NWS ARE NOT QUALITY
       CONTROLLED AND MAY MIS-REPORT RAIN FOR SNOW...
$$

  *****  WEATHER ACROSS NORTHERN MINNESOTA  *****

CITY           SKY/WX    TMP DP  RH WIND       PRES   REMARKS
FLAG ISLAND    FAIR      73  63  68 NW5       29.72F
WARROAD        FAIR      75  66  73 SW3       29.76S
ROSEAU         FAIR      77  64  65 CALM      29.76R
HALLOCK        FAIR      81  61  50 SW8       29.75S
THF RVR FALLS  FAIR     N/A N/A N/A E5        29.78F
HALSTAD        NOT AVBL
FOSSTON        PTSUNNY   73  64  73 W8        29.82S
BAUDETTE       CLOUDY    71  64  78 W6        29.77R
WASKISH        FAIR      75  66  73 W9        29.79R
CROOKSTON      FAIR      79  63  57 CALM      29.79R
$$
  *****  WEATHER ACROSS CENTRAL AND WEST MINNESOTA  *****

CITY           SKY/WX    TMP DP  RH WIND       PRES   REMARKS
BEMIDJI        PTSUNNY   80  64  58 SW13G18   29.80S
PARK RAPIDS    FAIR      84  63  49 SW13      29.81S
WADENA         FAIR      82  64  54 SW15      29.81S
DETROIT LAKES  FAIR      79  63  57 W6        29.83S
MOORHEAD       FAIR      77  66  69 N6        29.81R
FERGUS FALLS   FAIR      81  66  61 W10       29.80R
ELBOW LAKE     FAIR      84  66  55 SW10      29.81S HAZE
MORRIS MN      FAIR      88  66  48 SW12      29.81S HX  90
STAPLES        FAIR      82  64  54 S16       29.83R
WHEATON        FAIR      81  64  57 W8        29.83R
$$
  *****  WEATHER ELSEWHERE ACROSS MINNESOTA  *****

CITY           SKY/WX    TMP DP  RH WIND       PRES   REMARKS
DULUTH         FAIR      81  66  60 SW17      29.85F
INTRNTL FALLS  FAIR      81  64  56 W9G21     29.74R
ELY            FAIR      81  61  50 SW13G18   29.80S
CLOQUET        FAIR      81  66  61 S14G22    29.85S
BRAINERD       FAIR      83  66  56 S21G28    29.83S
HIBBING        FAIR      84  63  49 S8G20     29.81S
ALEXANDRIA     FAIR      83  67  58 S18G24    29.85S
SAINT CLOUD    FAIR      83  69  62 S16G24    29.85F
MINNEAPOLIS    FAIR      85  68  56 SW16G26   29.89F
$$

  *****  WEATHER ACROSS SOUTH DAKOTA  *****

CITY           SKY/WX    TMP DP  RH WIND       PRES   REMARKS
SIOUX FALLS    FAIR      82  69  64 S16G24    29.86F
BROOKINGS      FAIR      82  70  65 S14       29.88S
WATERTOWN      FAIR      83  65  54 W9        29.85S
HURON          FAIR      81  65  58 NW13      29.85R
SISSETON         N/A     82  65  56 NW9       29.81R
ABERDEEN       FAIR      76  62  62 N8        29.88R
MITCHELL       FAIR      89  64  43 SW6       29.83S HX  90
PIERRE         FAIR      74  61  63 N9        29.90F
MOBRIDGE       FAIR      82  59  45 N6        29.88F
RAPID CITY     FAIR      74  55  51 SE7       29.99F
$$

  *****  SOME WEATHER IN NEARBY STATES *****

CITY           SKY/WX    TMP DP  RH WIND       PRES   REMARKS
GLASGOW MT     FAIR      72  36  26 SW12      29.85S
GREAT FALLS MT FAIR      75  33  21 SW24G32   29.89F
CHEYENNE WY    CLOUDY    79  39  23 N14       30.13S
SCOTTSBLUFF NE FAIR      87  49  26 E12       29.99F
OMAHA NE       FAIR      86  67  52 S15       29.92F
DES MOINES IA  FAIR      87  71  58 S12       29.93F HX  93
DAVENPORT IA   FAIR      87  73  62 S7        29.99F HX  94
CHICAGO IL     FAIR      85  67  54 SW6       30.01F
EAU CLAIRE WI  FAIR      82  70  66 S10       29.94F
LA CROSSE WI   FAIR      85  70  60 S12       29.96S
$$

  *****  SOME NATIONAL WEATHER *****

CITY           SKY/WX    TMP DP  RH WIND       PRES   REMARKS
LA GUARDIA NY  PTSUNNY   91  63  39 W15       29.93F HX  92
RALEIGH NC     PTSUNNY   75  70  83 CALM      30.08F
ATLANTA GA     PTSUNNY   82  66  58 CALM      30.09F
NEW ORLEANS LA PTSUNNY   93  63  36 VRB3      30.01F HX  94
OKLAHOMA CITY  FAIR      92  61  35 S16G25    29.96F HX  92
ALBUQUERQUE NM FAIR      89  44  20 VRB3      30.11F
SALT LAKE CITY FAIR      85  41  21 NW10      30.02F
LOS ANGELES CA FAIR      77  63  61 W12       29.90F
BOISE ID       FAIR      80  40  23 CALM      30.00F
SEATTLE WA     CLOUDY    64  55  72 S15G21    29.97F
$$

*** WEATHER ACROSS MANITOBA...SASKATCHEWAN AND ONTARIO ***
                ***ONTARIO***

CITY           SKY/WX    TMP DP  RH WIND       PRES   REMARKS
GERALDTON      CLOUDY    75  63  64 S13G20    29.80F
THUNDER BAY    CLOUDY    77  66  69 S10       29.79F
SIOUX LOOKOUT  CLOUDY    77  64  65 SW10G20   29.69R
TORONTO        MOSUNNY   84  64  51 W8        30.00S
BIG TROUT LK   LGT RAIN  64  63  94 SE6       29.53R
PICKLE LAKE    PTSUNNY   77  63  61 SW13G21   29.62R
DRYDEN         CLOUDY    77  63  61 SW17G26   29.71R
KENORA         CLOUDY    70  66  88 SW8       29.74S
$$
                *** MANITOBA***

CITY           SKY/WX    TMP DP  RH WIND       PRES   REMARKS
BRANDON        MOSUNNY   77  46  33 W21G31    29.73R
DAUPHIN        SUNNY     77  50  38 W16G26    29.63R
ISLAND LAKE    CLOUDY    70  63  78 W9        29.51S
PILOT MOUND      N/A     77  39  25 W17G24      N/A
THE PAS        MOSUNNY   73  55  53 S9        29.49F
THOMPSON       DRIZZLE   57  55  94 NE3       29.50R FOG
WINNIPEG       MOSUNNY   79  54  41 W18G28    29.70F
LYNN LAKE      CLOUDY    63  57  82 MISG      29.48S
CHURCHILL      CLOUDY    50  45  81 SE20G28   29.60S
GILLAM         DRIZZLE   50  48  93 VRB2      29.52R FOG
$$
                ***SASKATCHEWAN***

CITY           SKY/WX    TMP DP  RH WIND       PRES   REMARKS
ESTEVAN        PTSUNNY   77  41  27 W20G29    29.79S
KINDERSLEY     PTSUNNY   73  36  25 W18G26    29.66
LLOYDMINSTER   PTSUNNY   72  41  33 W6        29.60S
PRINCE ALBERT  PTSUNNY   79  48  34 W16G22    29.55R
REGINA         PTSUNNY   73  41  31 W18G30    29.72S


USA.gov is the U.S. government's official web portal to all federal, state and local government web resources and services.